Location: Bailen
(14.1842°N, 120.7958°E)
Time: 18:40:49
(UTC+00:00)

Cosmos 2056 Rocket - Pass Details

Date: 12 January 2026
Orbit: 738 x 795 km, 74.0° (Epoch: 17 February)

Event Time Altitude Azimuth Distance (km) Brightness Sun altitude
Exits shadow 20:24:16 66° 161° (SSE) 826 3.6 -28.3°
Drops below altitude 10° 20:28:45 10° 167° (SSE) 2,303 6.3 -27.3°
Sets 20:31:08 0° 167° (SSE) 3,238 7.1 -26.7°
